Regional Weather Roundup
Issued by NWS

Home | Current Version | Previous Version | Graphics & Text | Print | Product List | Glossary On
Versions: 1 2 3 4 5 6 7 8 9 10 11 12 13 14 15 16 17 18 19 20 21 22 23 24 25 26 27 28 29 30 31 32 33 34 35 36 37 38 39 40 41 42 43 44 45 46 47 48 49 50
587
ASUS43 KMPX 241101
RWRMN
WEATHER ROUNDUP FOR MINNESOTA
NATIONAL WEATHER SERVICE TWIN CITIES/CHANHASSEN MN
600 AM CDT MON APR 24 2017


NOTE: "FAIR" INDICATES FEW OR NO CLOUDS BELOW 12,000 FEET WITH NO
SIGNIFICANT WEATHER AND/OR OBSTRUCTIONS TO VISIBILITY. N/A MEANS
CURRENT SKY AND/OR WEATHER CONDITIONS ARE NOT AVAILABLE.

MNZ060>063-068>070-241200-
   Twin Cities Metro

CITY           SKY/WX    TMP DP  RH WIND       PRES   REMARKS
TWIN CITIES    MOCLDY    56  33  42 S8        29.81F
ST PAUL        CLOUDY    48  42  80 SE6       29.82F
CRYSTAL        CLOUDY    42  37  82 CALM      29.79F
LAKEVILLE      CLOUDY    52  36  54 S7        29.81F
EDEN PRAIRIE   MOCLDY    53  35  50 S5        29.79F
SOUTH ST PAUL  PTCLDY    51  35  55 SE3       29.82S
LAKE ELMO      FAIR      48  37  66 SE8       29.84S
$$
MNZ001>005-007-008-013>017-022>024-027-028-241200-
   Northwest Minnesota

CITY           SKY/WX    TMP DP  RH WIND       PRES   REMARKS
BEMIDJI        CLOUDY    33  27  80 E14       29.78F WCI  23
HALLOCK        CLOUDY    34  28  80 E17G25    29.82F WCI  23
ROSEAU         CLOUDY    34  28  80 E18G24    29.85F WCI  23
WARROAD        FLURRIES  32  28  86 E18G28    29.89S WCI  20
THIEF RVR FALL CLOUDY    33  30  88 E20G25    29.77F WCI  21
CROOKSTON      CLOUDY    36  30  80 E14       29.74F
FOSSTON        CLOUDY    32  25  74 E13G18    29.73F WCI  22
DETROIT LAKES  CLOUDY    34  30  86 SE10      29.70F WCI  26
MOORHEAD       CLOUDY    36  28  75 E5        29.66F
PARK RAPIDS    CLOUDY    33  24  69 E9        29.75F WCI  25
MAHNOMEN       PTSUNNY   33  28  81 E13G20    29.70F WCI  24
$$
MNZ006-009>011-018-025>026-241200-
   North Central Minnesota

CITY           SKY/WX    TMP DP  RH WIND       PRES   REMARKS
BAUDETTE       CLOUDY    31  28  89 E14       29.87F WCI  21
FLAG ISLAND    CLOUDY    34  18  51 E12G20    29.90F WCI  25
INTL FALLS     CLOUDY    31  28  89 E10G21    29.92F WCI  22
WASKISH        CLOUDY    32  30  93 E14G20    29.83F WCI  22
BIG FORK       CLOUDY    30  27  86 E8        29.86F WCI  23
LONGVILLE      CLOUDY    32  27  80 E7        29.79F WCI  26
GRAND RAPIDS   CLOUDY    31  26  82 E12       29.86F WCI  22
CRANE LAKE     CLOUDY    28  27  93 E3        29.97F
ORR            CLOUDY    28  25  86 MISG      29.89F
COOK           CLOUDY    28  25  86 E8        29.91F WCI  20
WALKER         PTSUNNY   32  26  79 E10G20    29.78F WCI  24
$$
MNZ012-019>021-037-241200-
   Northeast Minnesota

CITY           SKY/WX    TMP DP  RH WIND       PRES   REMARKS
DULUTH         CLOUDY    31  27  85 E23G31    29.89F WCI  18
ELY            MOCLDY    28  25  86 E9        29.95F WCI  20
HIBBING        PTCLDY    30  24  78 E14       29.88F WCI  19
EVELETH        PTCLDY    32  22  67 E7        29.90F WCI  26
DULUTH HARBOR  CLOUDY    36  32  87 NE29      29.94F
TWO HARBORS    CLOUDY    34  27  75 E16G26    29.93F WCI  23
SILVER BAY     PTCLDY    32  27  80 E15G22    29.96F WCI  22
GRAND MARAIS     N/A     32  26  78 NE17G25   30.05F WCI  21
G MARAIS ARPRT CLOUDY    25  19  80 E14G20    30.00F WCI  13
$$
MNZ029>031-032-039>041-046>048-054>057-064-241200-
   West Central Minnesota

CITY           SKY/WX    TMP DP  RH WIND       PRES   REMARKS
FERGUS FALLS   PTCLDY    37  30  75 E15G21    29.65F
WHEATON        CLOUDY    43  36  75 E14       29.64F
MORRIS         CLOUDY    45  36  70 SE14      29.65F
ALEXANDRIA     CLOUDY    37  32  82 E15       29.71F
ELBOW LAKE     FAIR      39  34  83 SE16      29.65F
WADENA         CLOUDY    32  27  80 E12       29.73S WCI  23
GLENWOOD       PTCLDY    37  34  87 E13       29.71F
APPLETON       MOCLDY    46  36  66 E8        29.65F
BENSON         CLOUDY    48  32  53 SE13G21   29.69F
ORTONVILLE     CLOUDY    46  37  71 SE9       29.63F
MADISON        CLOUDY    57  36  44 S10       29.64F
WILLMAR        FAIR      48  37  66 SE12      29.73F
$$
MNZ033>034-036-042>043-049>051-058-059-241200-
   Central Minnesota

CITY           SKY/WX    TMP DP  RH WIND       PRES   REMARKS
ST CLOUD       CLOUDY    36  33  89 E9        29.78F
SAUK CENTRE    FAIR      35  32  90 E8        29.74F WCI  28
PAYNESVILLE    PTCLDY    40  35  83 E8        29.75F
AITKIN         CLOUDY    36  27  69 E8        29.80F
PINE RIVER     CLOUDY    34  28  80 E10       29.82F WCI  26
BRAINERD       PTCLDY    35  30  82 VRB6      29.78F WCI  30
STAPLES        CLOUDY    34  28  80 E6        29.74F WCI  29
LONG PRAIRIE   FAIR      34  32  93 E7        29.75F WCI  28
LITTLE FALLS   CLOUDY    34  32  93 E3        29.77F
LITCHFIELD     CLOUDY    45  39  81 SE7       29.76F
BUFFALO        CLOUDY    41  37  84 NE5       29.80F
MAPLE LAKE     MOCLDY    41  38  91 E5        29.79F
HUTCHINSON     CLOUDY    50  38  61 SE6       29.77F
$$
MNZ037-044-045-052-053-241200-
   East Central Minnesota

CITY           SKY/WX    TMP DP  RH WIND       PRES   REMARKS
PRINCETON      CLOUDY    37  34  87 NE9       29.80F
MORA           PTCLDY    34  30  86 E6        29.85F WCI  29
CAMBRIDGE      PTCLDY    39  30  70 CALM      29.80F
RUSH CITY      PTCLDY    35  32  88 NE3       29.83F
MOOSE LAKE     PTCLDY    34  28  80 E6        29.85F WCI  29
HINCKLEY       FAIR      36  32  87 E8        29.85F
CLOQUET        PTCLDY    34  27  75 E12G20    29.88S WCI  25
MCGREGOR       CLOUDY    34  30  86 E10G16    29.84F WCI  26
$$
MNZ071>073-080-081-089-090-097-098-241200-
   Southwest Minnesota

CITY           SKY/WX    TMP DP  RH WIND       PRES   REMARKS
MONTEVIDEO     CLOUDY    52  36  54 S8        29.68F
GRANITE FALLS  CLOUDY    52  36  53 SE12      29.70F
CANBY          CLOUDY    56  33  40 SW16G28   29.64F
MARSHALL       CLOUDY    54  34  46 S23G29    29.67F
REDWOOD FALLS  MOCLDY    51  34  52 S13       29.72F
OLIVIA         MOCLDY    50  34  53 SE10      29.72F
PIPESTONE      CLOUDY    48  32  53 S10       29.69F
WINDOM         CLOUDY    54  34  47 S13       29.75F
WORTHINGTON    MOCLDY    51  35  54 S15       29.74F
JACKSON        CLOUDY    50  32  50 S13G20    29.78S
TRACY          MOCLDY    55  36  48 S16       29.71F
SLAYTON        CLOUDY    51  34  51 S15G22    29.73S
$$
MNZ065>067-074>077-082>085-091>093-241200-
   South Central Minnesota

CITY           SKY/WX    TMP DP  RH WIND       PRES   REMARKS
MANKATO        MOCLDY    52  34  50 S10       29.80F
NEW ULM        CLOUDY    52  34  50 S13       29.76F
ST JAMES       CLOUDY    52  36  54 S17       29.78S
FAIRMONT       CLOUDY    48  35  60 S13       29.80F
GLENCOE        CLOUDY    53  38  57 SE8       29.77F
FARIBAULT      MOCLDY    52  36  54 S8        29.82F
OWATONNA       CLOUDY    52  34  50 S9        29.83S
WASECA         CLOUDY    52  32  46 S15       29.82F
ALBERT LEA     MOCLDY    50  32  50 S9        29.83F
$$
MNZ078>079-086>088-094>096-241200-
   Southeast Minnesota

CITY           SKY/WX    TMP DP  RH WIND       PRES   REMARKS
ROCHESTER      MOCLDY    48  34  58 S12       29.86F
RED WING       MOCLDY    54  34  47 SE8       29.84F
STANTON        CLOUDY    53  35  50 S7        29.82S
DODGE CENTER   PTCLDY    48  36  61 S13       29.84F
WINONA         CLEAR     46  41  81 SE7       29.91S
AUSTIN         CLOUDY    48  34  57 S3        29.86S
PRESTON        MOCLDY    46  32  57 S6        29.89S
$$
ABBREVIATIONS USED IN REMARKS
   TC - TEMPERATURES IN CELSIUS
  WCI - WIND CHILL INDEX
   HX - HEAT INDEX
  VSB - VISIBILITY
$$




USA.gov is the U.S. government's official web portal to all federal, state and local government web resources and services.